Location: Unspecified
(52.4292°N, 19.3359°E)
Time: 16:00:22
(UTC+02:00)

Transit 2A Rocket - Pass Details

Date: 30 May 2024
Orbit: 583 x 910 km, 66.7° (Epoch: 14 June)

Event Time Altitude Azimuth Distance (km) Brightness Sun altitude
Rises 06:30:51 0° 290° (WNW) 3,221 7.8 15.8°
Reaches altitude 10° 06:33:51 10° 308° (NW) 2,359 7.2 16.2°
Maximum altitude 06:37:45 19° 354° (N) 1,859 7.2 16.8°
Drops below altitude 10° 06:41:51 10° 40° (NE) 2,504 8.7 17.4°
Sets 06:45:10 0° 57° (ENE) 3,487 9.7 17.9°
